• In Uzbekistan
  • List of Countries
  • For 7 days
  • Water Temperature
  • Satellite Maps
  • Weather Map
  • Weather Widgets
  • user-avatar
    Login

    Hourly Weather Soma Bey

    Today, 24 January, Wednesday

    Time Temperature Precipitation Wind Pressure Humidity
    00:00 +16°C° 0 mm 2 mps 751 mmHg 56%
    01:00 +16°C° 0 mm 2 mps 751 mmHg 57%
    02:00 +15°C° 0 mm 2 mps 750 mmHg 59%
    03:00 +15°C° 0 mm 2 mps 750 mmHg 60%
    04:00 +14°C° 0 mm 2 mps 750 mmHg 61%
    05:00 +14°C° 0 mm 2 mps 750 mmHg 62%
    06:00 +15°C° 0 mm 2 mps 751 mmHg 58%
    07:00 +16°C° 0 mm 2 mps 751 mmHg 54%
    08:00 +16°C° 0 mm 3 mps 751 mmHg 49%
    09:00 +18°C° 0 mm 2 mps 751 mmHg 43%
    10:00 +19°C° 0 mm 2 mps 751 mmHg 37%
    11:00 +21°C° 0 mm 2 mps 751 mmHg 31%
    12:00 +21°C° 0 mm 3 mps 750 mmHg 29%
    13:00 +22°C° 0 mm 3 mps 750 mmHg 27%
    14:00 +24°C° 0 mm 3 mps 749 mmHg 25%
    15:00 +22°C° 0 mm 3 mps 749 mmHg 29%
    16:00 +22°C° 0 mm 3 mps 749 mmHg 32%
    17:00 +21°C° 0 mm 3 mps 749 mmHg 35%
    18:00 +20°C° 0 mm 3 mps 749 mmHg 39%
    19:00 +19°C° 0 mm 2 mps 750 mmHg 42%
    20:00 +18°C° 0 mm 2 mps 750 mmHg 45%
    21:00 +17°C° 0 mm 2 mps 750 mmHg 46%
    22:00 +17°C° 0 mm 2 mps 750 mmHg 47%
    23:00 +16°C° 0 mm 3 mps 750 mmHg 48%

    Tomorrow, 25 January, Thursday

    Time Temperature Precipitation Wind Pressure Humidity
    00:00 +16°C° 0 mm 3 mps 750 mmHg 48%
    01:00 +14°C° 0 mm 3 mps 750 mmHg 49%
    02:00 +14°C° 0 mm 3 mps 750 mmHg 49%
    03:00 +13°C° 0 mm 3 mps 750 mmHg 50%
    04:00 +13°C° 0 mm 3 mps 750 mmHg 51%
    05:00 +13°C° 0 mm 3 mps 750 mmHg 52%
    06:00 +13°C° 0 mm 4 mps 750 mmHg 50%
    07:00 +14°C° 0 mm 5 mps 750 mmHg 49%
    08:00 +15°C° 0 mm 5 mps 750 mmHg 48%
    09:00 +16°C° 0 mm 5 mps 750 mmHg 44%
    10:00 +19°C° 0 mm 6 mps 750 mmHg 40%
    11:00 +20°C° 0 mm 6 mps 751 mmHg 36%
    12:00 +20°C° 0 mm 6 mps 750 mmHg 37%
    13:00 +21°C° 0 mm 7 mps 750 mmHg 37%
    14:00 +21°C° 0 mm 7 mps 750 mmHg 38%
    15:00 +20°C° 0 mm 7 mps 750 mmHg 40%
    16:00 +18°C° 0 mm 8 mps 750 mmHg 42%
    17:00 +17°C° 0 mm 8 mps 750 mmHg 44%
    18:00 +16°C° 0 mm 7 mps 750 mmHg 47%
    19:00 +15°C° 0 mm 7 mps 751 mmHg 50%
    20:00 +14°C° 0 mm 6 mps 751 mmHg 53%
    21:00 +13°C° 0 mm 6 mps 751 mmHg 53%
    22:00 +13°C° 0 mm 6 mps 752 mmHg 53%
    23:00 +11°C° 0 mm 6 mps 752 mmHg 53%

    Day after tomorrow, 26 January, Friday

    Time Temperature Precipitation Wind Pressure Humidity
    00:00 +12°C° 0 mm 5 mps 752 mmHg 53%
    01:00 +10°C° 0 mm 5 mps 752 mmHg 54%
    02:00 +10°C° 0 mm 5 mps 752 mmHg 55%
    03:00 +9°C° 0 mm 5 mps 752 mmHg 57%
    04:00 +9°C° 0 mm 5 mps 752 mmHg 58%
    05:00 +8°C° 0 mm 5 mps 752 mmHg 59%
    06:00 +9°C° 0 mm 5 mps 753 mmHg 57%
    07:00 +9°C° 0 mm 5 mps 753 mmHg 55%
    08:00 +9°C° 0 mm 5 mps 754 mmHg 53%
    09:00 +12°C° 0 mm 5 mps 754 mmHg 46%
    10:00 +13°C° 0 mm 5 mps 754 mmHg 39%
    11:00 +15°C° 0 mm 6 mps 754 mmHg 31%
    12:00 +15°C° 0 mm 6 mps 754 mmHg 29%
    13:00 +16°C° 0 mm 6 mps 753 mmHg 26%
    14:00 +17°C° 0 mm 6 mps 753 mmHg 24%
    15:00 +16°C° 0 mm 6 mps 753 mmHg 25%
    16:00 +16°C° 0 mm 5 mps 753 mmHg 27%
    17:00 +15°C° 0 mm 5 mps 753 mmHg 28%
    18:00 +14°C° 0 mm 5 mps 754 mmHg 31%
    19:00 +13°C° 0 mm 5 mps 754 mmHg 34%
    20:00 +12°C° 0 mm 5 mps 755 mmHg 37%
    21:00 +12°C° 0 mm 4 mps 755 mmHg 40%
    22:00 +11°C° 0 mm 4 mps 755 mmHg 42%
    23:00 +10°C° 0 mm 4 mps 755 mmHg 45%

    27 January, Saturday

    Time Temperature Precipitation Wind Pressure Humidity
    00:00 +10°C° 0 mm 4 mps 755 mmHg 47%
    01:00 +10°C° 0 mm 4 mps 755 mmHg 49%
    02:00 +8°C° 0 mm 4 mps 755 mmHg 51%
    03:00 +8°C° 0 mm 4 mps 755 mmHg 53%
    04:00 +7°C° 0 mm 4 mps 755 mmHg 55%
    05:00 +7°C° 0 mm 4 mps 755 mmHg 58%
    06:00 +8°C° 0 mm 4 mps 755 mmHg 55%
    07:00 +10°C° 0 mm 4 mps 755 mmHg 51%
    08:00 +11°C° 0 mm 4 mps 756 mmHg 48%
    09:00 +12°C° 0 mm 4 mps 756 mmHg 44%
    10:00 +14°C° 0 mm 4 mps 756 mmHg 40%
    11:00 +15°C° 0 mm 5 mps 756 mmHg 36%
    12:00 +16°C° 0 mm 5 mps 755 mmHg 34%
    13:00 +17°C° 0 mm 5 mps 755 mmHg 32%
    14:00 +19°C° 0 mm 5 mps 754 mmHg 30%
    15:00 +17°C° 0 mm 6 mps 754 mmHg 33%
    16:00 +17°C° 0 mm 6 mps 754 mmHg 36%
    17:00 +16°C° 0 mm 6 mps 754 mmHg 39%
    18:00 +16°C° 0 mm 6 mps 755 mmHg 43%
    19:00 +15°C° 0 mm 5 mps 755 mmHg 48%
    20:00 +14°C° 0 mm 5 mps 756 mmHg 52%
    21:00 +13°C° 0 mm 5 mps 756 mmHg 53%
    22:00 +13°C° 0 mm 5 mps 756 mmHg 54%
    23:00 +12°C° 0 mm 4 mps 756 mmHg 55%

    28 January, Sunday

    Time Temperature Precipitation Wind Pressure Humidity
    00:00 +12°C° 0 mm 4 mps 756 mmHg 55%
    01:00 +11°C° 0 mm 4 mps 756 mmHg 56%
    02:00 +11°C° 0 mm 4 mps 755 mmHg 56%
    03:00 +11°C° 0 mm 4 mps 755 mmHg 58%
    04:00 +10°C° 0 mm 5 mps 755 mmHg 59%
    05:00 +10°C° 0 mm 5 mps 755 mmHg 61%
    06:00 +12°C° 0 mm 5 mps 756 mmHg 59%
    07:00 +13°C° 0 mm 5 mps 756 mmHg 58%
    08:00 +14°C° 0 mm 5 mps 757 mmHg 56%
    09:00 +15°C° 0 mm 5 mps 757 mmHg 52%
    10:00 +17°C° 0 mm 6 mps 757 mmHg 48%
    11:00 +19°C° 0 mm 6 mps 757 mmHg 44%
    12:00 +20°C° 0 mm 6 mps 756 mmHg 41%
    13:00 +20°C° 0 mm 6 mps 756 mmHg 39%
    14:00 +21°C° 0 mm 6 mps 755 mmHg 37%
    15:00 +20°C° 0 mm 6 mps 755 mmHg 39%
    16:00 +20°C° 0 mm 5 mps 755 mmHg 41%
    17:00 +19°C° 0 mm 5 mps 755 mmHg 43%
    18:00 +17°C° 0 mm 5 mps 755 mmHg 47%
    19:00 +16°C° 0 mm 5 mps 755 mmHg 51%
    20:00 +15°C° 0 mm 4 mps 756 mmHg 55%
    21:00 +14°C° 0 mm 4 mps 756 mmHg 55%
    22:00 +14°C° 0 mm 4 mps 755 mmHg 55%
    23:00 +13°C° 0 mm 4 mps 755 mmHg 55%

    29 January, Monday

    Time Temperature Precipitation Wind Pressure Humidity
    00:00 +13°C° 0 mm 4 mps 755 mmHg 54%
    01:00 +13°C° 0 mm 4 mps 755 mmHg 52%
    02:00 +12°C° 0 mm 4 mps 755 mmHg 51%
    03:00 +12°C° 0 mm 4 mps 755 mmHg 53%
    04:00 +12°C° 0 mm 4 mps 755 mmHg 56%
    05:00 +12°C° 0 mm 4 mps 755 mmHg 58%
    06:00 +13°C° 0 mm 4 mps 755 mmHg 56%
    07:00 +14°C° 0 mm 4 mps 755 mmHg 54%
    08:00 +15°C° 0 mm 4 mps 756 mmHg 52%
    09:00 +17°C° 0 mm 4 mps 755 mmHg 48%
    10:00 +19°C° 0 mm 5 mps 755 mmHg 44%
    11:00 +20°C° 0 mm 5 mps 755 mmHg 39%
    12:00 +21°C° 0 mm 5 mps 755 mmHg 37%
    13:00 +22°C° 0 mm 5 mps 754 mmHg 34%
    14:00 +22°C° 0 mm 5 mps 754 mmHg 32%
    15:00 +22°C° 0 mm 5 mps 753 mmHg 34%
    16:00 +21°C° 0 mm 5 mps 753 mmHg 37%
    17:00 +20°C° 0 mm 5 mps 753 mmHg 40%
    18:00 +19°C° 0 mm 5 mps 754 mmHg 44%
    19:00 +17°C° 0 mm 5 mps 754 mmHg 49%
    20:00 +16°C° 0 mm 5 mps 754 mmHg 53%
    21:00 +15°C° 0 mm 5 mps 754 mmHg 53%
    22:00 +15°C° 0 mm 5 mps 754 mmHg 54%
    23:00 +14°C° 0 mm 5 mps 754 mmHg 54%
    Show more